User: anonymous   Login
Location: Spring Creek
(38.2870°N, 100.2160°W)
Time: 21:16:46
(UTC+00:00)
Language:

SL-16 R/B - Orbit

View from above orbital plane
View from above orbital plane
View from above satellite
View from above satellite

Ground track
Ground track

The orbit data is extracted from the following two-line orbital elements,

1 27006U 01056F   21204.40085591 -.00000041  00000-0  41908-5 0  9991
2 27006  99.5289 337.1794 0014955  25.9608  41.3790 13.70964669981561
Epoch (UTC): 23 July 2021 09:37:13
Eccentricity: 0.0014955
inclination: 99.5289°
perigee height: 985 km
apogee height: 1007 km
right ascension of ascending node: 337.1794°
argument of perigee: 25.9608°
revolutions per day: 13.70964669
mean anomaly at epoch: 41.3790°
orbit number at epoch: 98156

The dashed part of the orbit path shows where the satellite is in the earth's shadow,  

DLR